This is the latest recevied weather packets stored in our database for station/object CW2401. If no packets are shown the sender has not sent any weather packets the latest 10 day(s).
| Time | Temp. | Humidity | Pressure | Rain* | Wind** | Luminosity | Snow |
|---|---|---|---|---|---|---|---|
| 1777102895 | 15° C | 84% | 1009.4 hPa | 0 mm | - | - | - |
| 1777102777 | 15° C | 84% | 1009.4 hPa | 0 mm | - | - | - |
| 1777102535 | 15° C | 84% | 1009.4 hPa | 0 mm | - | - | - |
| 1777101695 | 15° C | 84% | 1009.4 hPa | 0 mm | - | - | - |
| 1777101215 | 15° C | 84% | 1009.4 hPa | 0 mm | - | - | - |
| 1777100615 | 15.56° C | 84% | 1009.4 hPa | 0 mm | - | - | - |
| 1777099056 | 15.56° C | 82% | 1009.5 hPa | 0 mm | - | - | - |
| 1777098215 | 16.11° C | 82% | 1009.5 hPa | 0 mm | - | - | - |
| 1777097255 | 16.11° C | 82% | 1009.8 hPa | 0 mm | - | - | - |
| 1777097014 | 16.11° C | 82% | 1009.7 hPa | 0 mm | - | - | - |
| 1777096775 | 15.56° C | 82% | 1009.8 hPa | 0 mm | - | - | - |
| 1777096295 | 15.56° C | 82% | 1009.9 hPa | 0 mm | - | - | - |
| 1777095095 | 15.56° C | 82% | 1010.1 hPa | 0 mm | - | - | - |
| 1777094256 | 15.56° C | 82% | 1010.2 hPa | 0 mm | - | - | - |
| 1777093774 | 15.56° C | 81% | 1010.1 hPa | 0 mm | - | - | - |
| 1777093416 | 16.11° C | 81% | 1010.1 hPa | 0 mm | - | - | - |
| 1777092336 | 16.11° C | 80% | 1010.1 hPa | 0 mm | - | - | - |
| 1777090522 | 16.67° C | 78% | 1010.2 hPa | 0 mm | - | - | - |
| 1777089071 | 17.22° C | 77% | 1010.2 hPa | 0 mm | - | - | - |
| 1777088950 | 17.22° C | 76% | 1010.3 hPa | 0 mm | - | - | - |
| 1777088229 | 17.22° C | 75% | 1010.2 hPa | 0 mm | - | - | - |
| 1777086905 | 17.78° C | 74% | 1010.2 hPa | 0 mm | - | - | - |
| 1777086786 | 17.78° C | 74% | 1010.2 hPa | 0 mm | - | - | - |
| 1777086665 | 17.78° C | 74% | 1010.2 hPa | 0 mm | - | - | - |
| 1777084986 | 18.33° C | 71% | 1010.3 hPa | 0 mm | - | - | - |
* Rain latest hour (hover to see other rain measurements)
** Current wind speed in m/s (hover to see current wind gust speed)